Zurück zum Katalog

STARLINK-6219

AktivKommunikationVLEO
NORAD 56892·PAYLOAD·🇺🇸 United States

Gestartet Jun 12, 2023 von Cape Canaveral Space Force Station

Loading…

Nächste Überflüge (nächste 24 Stunden)

TLE

AktuellSource: CelesTrak SupGP

Epoche: Sep 15, 2026, 02:32 UTC

1 56892C 23083S   26258.10604167  .00018636  00000+0  67488-3 0  2581
2 56892  43.0007  99.2899 0001991 263.1031 123.3018 15.27573267    12

Verfolge STARLINK-6219 in Echtzeit mit AllMySat

Download on the App Store